Theta_e
308 310 310 311 310 309 309 308 309 309 309 309 307 307 309 309 305 302 311 313 308 311 313 314 317 323 323 322 324 325 327 327 329 331 331 335 334 335 336 342 341 337 336 337 335 337 340 344 344 345 349 351 351 350 349 351 350 347 350 351 348 347 346 347 349 350 351 349 349 352 354 352 350 349 348 352 353 349 348 347 345 349 345 345 346 345 346
309 309 310 310 309 309 309 309 309 309 309 309 309 309 309 309 310 310 309 312 309 311 314 315 318 323 322 324 326 328 328 327 329 328 330 330 331 332 336 340 344 342 340 339 335 335 338 341 343 346 346 348 347 346 344 346 348 348 348 347 347 347 345 346 347 349 351 349 351 352 352 351 351 351 350 352 350 348 349 353 353 348 348 348 345 344 345
306 308 309 309 309 309 307 309 309 309 309 309 310 309 310 311 310 310 310 309 309 315 320 320 331 330 329 325 325 326 329 328 328 328 328 329 330 332 338 340 344 345 346 343 341 341 341 340 341 345 348 346 345 343 345 346 346 349 348 346 345 347 346 348 349 349 350 350 353 351 353 351 351 352 351 349 352 350 348 347 345 351 350 347 345 345 344
304 308 308 309 310 309 308 307 308 308 308 307 309 308 311 309 308 309 309 308 309 320 319 322 325 326 325 326 327 327 328 327 328 326 326 327 332 334 336 341 344 345 344 340 340 340 344 345 345 345 346 350 348 345 346 348 349 352 349 347 348 349 349 352 348 347 348 349 346 346 349 353 353 354 349 347 349 348 347 346 352 350 351 349 349 345 345
303 307 308 308 308 307 304 305 307 310 310 311 311 311 312 312 311 310 307 309 315 319 320 318 321 322 326 326 326 325 326 329 327 326 327 328 330 330 339 337 341 345 341 341 343 344 344 344 346 348 349 350 349 351 352 352 354 353 352 353 352 352 353 350 346 347 349 350 348 350 351 352 352 352 347 348 349 350 352 354 351 353 354 348 349 348 345
304 307 307 308 304 297 299 310 313 312 309 310 308 308 310 313 313 312 314 315 319 316 317 317 319 321 324 328 332 331 331 330 329 328 329 330 335 335 336 338 339 342 337 341 343 346 344 345 347 349 351 353 353 354 354 355 354 353 352 352 352 350 351 351 350 346 348 347 349 352 354 353 349 347 344 345 349 351 351 351 353 355 349 349 350 353 351
303 307 307 301 296 298 310 313 314 314 314 313 311 311 312 313 316 315 315 315 316 319 318 317 326 326 326 328 331 330 330 332 330 329 333 334 333 336 341 339 341 341 341 342 344 345 346 346 346 347 349 352 355 354 351 353 352 351 352 351 352 352 351 350 351 349 350 350 352 354 352 350 350 350 349 347 346 347 350 351 351 356 354 350 354 354 353
308 305 304 295 297 308 312 313 314 316 315 315 313 311 313 314 316 317 316 316 316 320 320 320 329 327 325 327 334 335 330 329 330 328 331 341 338 336 337 343 345 339 341 344 345 348 352 351 349 351 351 353 353 353 352 353 354 352 349 349 347 348 350 351 349 350 348 346 348 349 352 352 348 349 347 348 350 351 352 352 352 354 357 356 353 352 355
301 304 303 302 310 307 309 310 311 312 311 313 311 306 310 314 317 317 317 317 317 319 321 323 326 328 325 322 325 334 334 332 331 329 331 332 333 336 338 334 345 343 344 346 348 349 349 353 353 352 354 354 354 353 352 352 354 351 350 350 345 341 343 345 347 345 344 346 347 346 346 348 350 349 348 348 350 354 352 352 353 352 356 356 358 354 355
306 302 300 302 301 298 305 312 314 318 318 317 317 314 309 316 317 318 318 325 324 320 320 322 327 329 321 318 323 327 329 328 327 328 331 332 333 332 333 338 344 346 347 349 351 350 350 352 354 354 355 354 353 352 351 351 352 351 350 347 349 344 341 341 344 347 345 346 347 345 345 343 346 350 350 350 350 351 351 353 352 354 354 354 355 357 355
305 303 299 298 297 302 312 311 314 316 318 317 317 311 305 316 319 320 319 318 321 322 324 323 326 320 312 317 323 329 329 327 327 327 330 332 333 334 336 336 336 342 349 350 352 353 353 351 353 355 355 355 353 351 352 351 351 350 349 350 350 348 347 342 344 347 348 347 346 347 346 347 348 350 349 348 350 349 349 350 351 355 354 353 354 356 356
304 303 301 299 304 303 310 313 314 315 317 317 314 302 303 324 324 322 323 323 320 321 329 328 324 318 312 315 326 330 330 328 327 329 332 333 332 335 344 337 340 348 352 352 351 352 352 353 355 356 355 354 351 350 351 352 351 349 350 351 354 355 348 346 346 346 348 346 344 347 348 349 351 351 352 351 351 350 350 350 350 351 354 352 352 354 356
305 304 303 304 306 315 316 315 318 318 318 315 305 300 315 326 323 324 324 326 331 330 328 324 319 323 326 333 334 328 328 326 328 331 331 336 336 335 335 340 350 349 350 349 348 348 351 353 355 355 354 352 350 350 351 350 348 349 353 354 352 351 354 351 347 345 346 345 346 348 349 351 353 353 354 353 354 352 350 351 351 352 351 353 352 353 353
304 307 303 304 307 316 317 319 317 320 313 303 303 321 329 329 323 324 324 328 331 330 328 325 324 328 329 332 329 329 329 328 330 333 332 333 336 343 347 350 347 343 342 345 347 346 349 351 351 351 350 348 348 349 347 346 346 354 353 353 355 353 353 348 346 342 341 346 349 348 351 351 351 351 352 351 350 351 353 352 350 349 350 352 352 352 354
308 308 305 301 296 319 320 323 316 326 313 320 326 327 326 326 325 326 327 329 329 331 328 326 334 332 328 328 329 328 328 327 330 333 333 340 342 343 344 343 342 342 345 347 347 347 349 350 351 350 349 347 347 347 345 345 349 350 352 351 352 351 352 351 351 350 349 351 351 351 351 352 351 350 351 351 350 351 350 349 349 349 349 349 349 350 351
304 302 301 300 316 320 324 321 315 321 325 330 329 328 325 326 325 326 326 327 329 328 331 329 326 331 330 329 328 330 331 331 332 333 338 342 342 341 339 338 339 345 345 347 349 349 349 350 350 349 348 346 345 344 343 351 351 351 351 351 351 350 351 351 349 348 349 349 351 351 351 351 350 350 349 349 349 348 349 348 347 346 347 348 348 347 346
314 308 313 318 323 325 323 323 322 325 329 332 331 329 327 327 326 331 328 326 326 328 332 331 331 332 331 335 333 328 331 332 331 334 338 339 340 339 338 338 343 344 345 348 348 348 349 348 349 349 348 345 344 342 346 351 350 348 348 348 348 348 348 350 349 348 349 350 349 349 349 350 348 349 346 347 347 347 347 347 346 345 346 346 346 346 346
321 320 319 323 322 322 322 322 326 324 324 329 330 330 329 331 334 331 328 328 327 327 335 331 328 329 330 329 329 338 332 331 333 340 339 343 344 340 340 342 343 345 348 349 348 346 347 348 346 347 346 345 342 343 347 348 348 347 347 346 346 345 347 349 348 348 346 347 348 348 347 348 347 347 345 346 345 346 348 347 346 345 344 344 344 344 346
312 304 319 318 320 321 321 322 325 326 325 326 329 331 332 333 334 334 335 333 331 329 329 328 330 330 329 327 329 335 336 333 334 335 341 342 341 339 342 344 346 347 347 346 346 345 343 345 345 344 343 344 344 345 346 344 345 347 346 346 345 345 346 347 347 347 345 347 347 346 345 347 347 346 346 347 344 345 346 346 344 345 342 343 342 342 344
313 311 318 322 322 323 323 323 323 323 325 326 330 331 333 335 336 336 336 336 335 334 330 331 334 336 333 329 335 334 335 340 338 340 342 342 341 346 347 346 348 347 346 345 344 343 343 343 344 343 343 342 343 343 343 342 343 344 344 344 343 344 343 344 346 346 346 344 345 344 345 345 344 344 345 344 344 345 344 344 344 343 343 343 342 341 341
315 317 322 322 325 323 324 324 326 327 326 328 330 332 333 333 334 336 338 338 337 337 336 339 338 336 334 334 338 332 336 338 338 343 342 343 343 349 347 347 349 348 347 344 344 343 343 344 343 342 341 341 342 342 342 344 345 343 343 343 344 344 343 343 344 346 345 345 345 344 344 345 346 347 345 344 345 346 347 346 345 343 342 341 341 340 338
310 313 315 320 314 315 322 323 324 326 327 329 330 331 332 333 333 335 336 338 340 337 332 332 332 333 337 338 339 332 335 340 339 343 342 342 342 346 347 346 348 347 348 346 343 342 343 344 343 342 341 341 342 342 343 344 344 343 343 343 343 343 344 344 343 341 345 345 343 342 343 343 343 345 344 332 339 344 343 331 320 319 324 339 339 338 337
307 319 320 323 324 320 326 324 327 326 327 329 329 330 331 332 333 334 336 337 337 337 339 334 333 335 336 335 337 338 338 340 345 345 344 344 345 346 345 345 346 346 346 345 344 343 343 343 342 341 341 341 342 342 344 344 345 344 344 345 343 341 342 341 342 342 339 341 344 344 343 343 342 342 341 341 312 312 330 328 313 304 306 308 308 315 331
318 321 322 324 324 318 323 325 326 325 329 326 326 330 331 332 333 334 337 338 336 336 337 333 331 333 335 333 333 334 338 340 343 343 345 346 346 346 345 345 346 345 344 344 342 342 342 342 341 341 339 340 343 343 345 345 345 345 345 345 343 343 343 345 346 347 344 342 341 342 342 342 342 340 339 341 340 314 309 315 311 304 301 302 303 303 305
318 325 324 325 325 324 324 324 324 324 327 329 327 326 328 330 332 335 338 337 336 336 335 332 333 335 335 335 336 340 339 340 344 345 346 346 345 344 343 343 345 344 344 344 344 343 342 341 340 340 339 340 342 342 344 343 342 344 344 343 342 343 346 345 346 346 341 342 342 342 340 340 340 339 338 338 339 337 332 308 303 306 306 303 299 298 299
323 324 325 325 324 324 325 323 322 323 323 328 327 327 329 331 334 336 337 338 336 337 335 333 334 335 337 337 338 338 342 342 344 346 344 344 343 342 341 342 343 344 343 343 343 342 341 340 340 339 339 339 342 341 340 344 343 343 342 342 342 343 342 342 344 345 341 345 341 342 341 342 339 338 338 338 337 338 337 336 333 318 306 301 299 299 297
326 327 323 321 320 321 323 320 318 323 326 328 327 326 327 330 333 335 336 338 339 337 338 337 336 338 337 336 339 339 338 337 341 344 342 342 341 340 342 343 342 343 342 342 343 342 341 342 340 339 340 341 343 341 341 341 343 343 342 342 343 342 339 339 339 341 341 340 339 341 340 339 339 336 337 340 339 338 336 335 335 335 335 334 314 300 314
322 323 322 318 317 319 320 324 325 326 326 326 326 325 324 329 330 333 333 335 336 339 337 337 337 337 334 333 333 331 331 330 337 339 340 337 340 341 343 343 342 341 341 341 343 343 341 340 339 339 339 341 343 343 340 341 342 342 342 342 340 340 340 339 340 340 339 341 342 341 339 339 339 337 337 337 338 339 336 338 337 336 336 342 341 320 307
322 322 322 321 321 322 323 324 324 324 324 325 326 325 323 324 326 330 331 333 336 338 337 337 338 335 332 331 332 333 332 333 334 336 336 343 342 340 343 344 342 340 342 341 341 340 341 341 340 338 340 343 341 341 340 341 341 340 339 338 338 338 339 340 339 339 338 338 339 338 334 333 334 336 336 336 337 338 343 339 337 338 338 343 340 341 324
319 320 320 323 322 322 321 320 320 321 321 322 322 323 323 324 323 326 329 331 331 335 335 337 337 336 336 333 333 332 331 331 335 336 337 340 340 343 342 345 344 342 341 339 340 339 340 340 340 339 342 341 338 339 338 340 339 339 336 336 336 336 333 334 337 335 335 335 333 334 334 333 338 337 336 337 337 337 336 337 337 338 337 338 336 338 336
319 321 321 321 321 321 320 321 323 322 323 324 324 323 323 325 326 327 329 330 333 334 334 335 337 338 336 335 335 333 334 335 337 340 342 347 347 346 343 343 340 338 338 338 341 339 339 339 340 341 342 341 338 336 338 338 335 334 335 335 330 328 328 329 327 331 329 332 333 332 332 332 333 335 337 337 335 335 337 335 337 337 336 339 338 334 335
317 318 319 319 319 319 319 321 322 320 321 321 322 322 322 322 325 325 327 329 331 330 334 334 333 335 337 335 336 339 340 339 337 339 343 344 345 348 346 344 343 343 340 342 341 340 339 339 338 340 345 343 342 338 337 334 334 334 332 327 326 328 326 326 327 325 327 331 330 329 330 330 330 332 335 337 336 335 334 333 334 334 334 334 335 334 337
315 314 315 317 317 317 317 318 319 320 321 321 322 323 324 323 323 325 326 329 329 331 332 335 338 337 335 337 339 335 337 344 342 342 341 344 345 346 346 342 344 345 343 342 342 340 339 338 337 339 343 340 339 338 333 333 335 332 328 329 329 329 331 327 328 330 331 331 331 331 331 332 334 334 334 337 336 334 334 332 334 335 335 335 334 337 336
316 315 316 317 318 317 318 320 321 321 321 321 321 322 324 325 324 327 329 332 329 330 333 336 340 341 340 341 340 336 340 339 335 337 339 342 345 346 346 344 345 345 344 344 342 341 340 340 339 342 340 339 337 334 333 334 333 331 333 330 330 330 331 331 331 331 334 332 331 331 332 332 335 336 337 338 336 335 333 335 333 332 333 333 334 337 329
322 321 320 318 319 319 319 319 320 321 321 323 323 322 324 325 326 328 333 331 330 334 337 337 340 340 341 341 342 340 341 339 339 341 344 346 346 347 346 345 344 344 344 344 344 341 342 336 339 340 340 333 334 334 334 332 330 331 334 335 336 331 332 337 331 329 332 333 334 332 334 334 336 336 336 335 335 336 335 335 333 333 331 333 334 337 338
322 320 320 320 321 322 322 322 321 321 321 321 323 325 327 326 325 325 328 332 332 335 337 336 338 339 339 341 341 339 340 341 343 343 344 345 346 347 346 344 343 341 341 340 340 339 340 338 341 338 334 331 334 334 331 331 333 334 337 334 332 330 331 331 331 333 334 333 333 334 335 335 335 335 336 335 336 337 334 334 334 336 335 333 333 336 336
324 323 323 324 324 325 324 324 323 323 323 324 325 327 328 329 327 329 331 333 333 335 337 335 336 336 337 340 342 342 343 343 342 343 343 345 346 346 344 343 343 339 338 336 337 336 336 339 339 338 336 332 331 332 337 338 338 334 336 334 331 331 328 327 330 333 333 334 333 333 333 334 334 336 338 338 336 337 339 336 333 332 331 332 332 332 331
325 325 325 325 325 325 325 326 327 326 325 326 327 328 329 328 328 327 327 327 329 333 337 338 337 338 338 341 343 342 342 341 341 343 344 346 345 342 342 341 339 338 334 336 338 336 337 341 337 335 334 334 335 332 337 340 338 337 332 334 333 331 330 327 329 331 332 334 334 334 334 333 332 333 334 335 336 335 333 333 332 331 331 331 332 330 332
322 325 326 326 326 326 326 326 326 327 327 326 327 328 330 330 328 326 325 326 329 332 335 337 338 337 338 339 339 339 338 338 339 343 345 344 339 334 336 341 343 341 342 341 336 336 343 337 333 333 335 335 335 331 337 345 337 337 335 337 334 333 330 330 328 328 332 333 333 332 333 333 331 330 331 331 332 331 332 332 330 330 333 330 331 331 331
322 323 325 326 326 326 327 327 327 327 328 329 328 329 331 330 328 326 325 328 334 337 335 336 336 336 337 337 339 338 339 340 341 339 337 335 335 332 332 334 342 346 346 344 338 338 339 337 332 330 336 336 333 336 341 339 337 335 337 334 334 332 331 330 329 328 327 327 331 332 332 331 331 331 328 328 328 328 328 329 330 329 329 330 331 330 331
323 323 323 325 326 328 326 327 327 329 330 330 330 331 332 331 330 329 325 328 335 337 336 336 335 334 337 337 338 339 340 337 336 336 334 332 332 331 330 329 335 342 341 338 340 340 333 334 331 328 336 336 333 339 339 339 336 333 333 333 334 333 331 330 330 329 328 327 328 324 327 326 327 328 327 328 327 328 328 328 327 328 329 328 330 332 335
324 325 324 323 325 326 327 328 328 327 327 329 330 331 331 330 328 325 330 328 331 332 335 336 336 336 336 339 339 338 338 337 336 334 334 334 332 331 329 331 337 339 340 341 341 336 336 332 331 333 335 337 337 344 339 337 333 332 332 333 335 333 331 329 329 328 331 331 329 327 330 327 325 325 326 329 328 328 327 328 328 327 328 329 330 332 331
323 323 322 321 322 324 326 327 327 327 327 326 326 328 329 329 329 331 326 331 331 331 333 334 336 337 337 338 340 337 336 336 335 334 333 332 332 331 330 330 331 332 333 335 336 335 333 332 330 330 336 338 337 343 344 336 335 333 333 333 334 334 332 330 329 329 329 329 329 329 330 330 327 326 324 325 326 326 327 327 327 329 328 332 330 330 330
324 324 323 323 323 324 327 328 325 325 324 325 327 328 331 332 329 331 329 329 330 331 332 334 334 336 338 339 337 337 337 337 336 332 329 329 330 332 334 333 334 333 333 330 333 332 331 331 330 332 341 342 343 340 336 337 336 336 336 336 335 336 332 331 330 329 328 328 328 329 329 329 327 327 329 326 327 328 330 326 330 331 330 331 331 330 330
321 322 322 323 323 324 326 327 325 325 326 326 325 326 330 333 333 334 335 336 335 334 339 339 338 338 339 337 339 340 340 338 337 333 329 327 325 327 334 336 335 333 331 332 332 335 333 332 334 337 342 342 345 343 337 335 336 337 336 335 334 333 332 331 330 330 329 329 329 329 328 328 328 330 330 330 328 328 334 329 330 328 329 333 330 331 330
321 323 323 325 326 325 327 328 330 328 327 325 325 326 328 332 334 337 339 338 335 334 334 335 336 339 340 339 338 339 339 339 339 341 341 335 329 331 337 337 336 335 332 333 331 334 338 341 333 334 334 336 342 341 336 336 335 335 335 333 333 332 332 331 330 330 329 328 328 328 328 328 328 327 330 330 329 329 327 325 326 330 332 330 333 331 333
322 323 325 326 325 328 328 328 328 327 326 325 324 323 325 328 332 335 336 336 337 335 334 332 333 334 335 339 338 337 335 334 335 337 337 338 338 338 334 336 337 333 333 332 332 334 335 336 335 332 331 333 341 337 336 337 338 337 334 335 334 333 330 331 332 331 331 330 330 331 331 328 328 329 332 330 328 329 327 326 326 328 327 324 326 325 324
321 320 323 324 325 328 329 328 327 326 326 327 326 326 328 329 330 332 332 332 333 333 333 333 336 340 340 339 339 340 337 332 326 329 334 338 339 340 338 336 336 333 331 332 335 339 335 334 332 331 331 331 334 333 333 334 334 334 335 336 336 333 331 330 330 329 329 329 332 336 330 328 336 330 328 328 330 328 327 325 322 326 326 325 326 327 328
325 321 322 324 325 325 324 325 326 326 326 328 328 329 330 330 328 328 327 327 330 333 333 334 337 339 339 337 338 338 336 335 333 330 333 337 339 340 339 338 336 331 332 335 336 337 334 329 327 328 329 335 334 333 332 331 331 330 330 332 334 333 332 331 330 331 330 330 329 328 329 326 328 329 328 326 326 328 326 328 331 329 328 327 327 326 327
325 324 324 324 324 325 326 326 324 326 326 327 329 330 330 330 330 328 327 326 328 330 334 335 335 337 337 337 340 337 334 333 333 336 339 342 342 342 339 338 338 334 335 338 338 338 337 327 326 328 331 336 335 333 332 331 332 332 333 332 333 334 336 331 325 326 334 331 329 328 330 330 330 327 327 328 328 329 327 326 326 325 322 324 325 327 327
326 326 326 326 326 328 328 327 328 328 328 328 328 330 328 327 327 328 330 328 331 330 329 331 333 334 336 335 335 334 336 336 336 340 340 342 344 341 341 341 337 333 335 336 338 339 337 334 334 333 335 337 337 337 337 336 335 334 336 340 336 333 330 329 329 329 331 331 332 332 334 332 334 333 331 328 326 327 326 328 326 327 326 326 328 329 328
327 327 328 327 327 329 329 330 330 329 330 329 328 329 328 327 327 330 332 333 332 330 330 329 328 332 334 334 334 333 332 332 332 335 338 339 340 341 337 335 337 334 337 338 338 339 337 335 334 334 336 336 337 336 335 336 336 335 331 330 331 330 329 328 327 329 329 334 331 331 328 334 330 332 330 328 326 326 327 328 327 327 327 327 328 328 329
Wind_Speed
15 15 14 13 14 13 14 16 12 11 10 9 11 9 9 8 6 6 5 5 7 3 9 4 3 14 9 9 10 8 6 5 4 5 5 5 4 4 4 6 6 4 2 2 2 4 5 5 3 1 2 3 5 6 6 5 5 6 5 6 5 6 5 4 4 4 3 4 5 5 5 6 8 8 9 7 4 4 5 7 11 12 13 12 11 11 11
14 14 15 14 16 15 15 16 15 13 14 13 12 11 9 11 6 6 7 3 7 6 10 3 5 13 6 9 8 7 6 6 5 5 5 4 3 2 4 6 7 7 8 8 3 2 4 6 7 6 5 5 4 2 5 5 7 4 4 2 3 4 5 5 4 5 5 5 5 6 6 7 7 8 7 4 5 5 6 5 5 12 9 8 11 11 9
14 16 18 18 17 15 16 15 15 14 14 15 15 12 11 8 6 8 7 6 7 2 4 4 14 12 8 9 8 9 7 6 7 6 4 4 5 4 8 6 8 6 5 7 7 7 9 7 7 3 2 3 8 7 5 6 7 3 4 5 6 6 7 6 4 3 5 5 3 2 4 6 7 8 8 9 7 4 5 10 14 11 7 9 9 8 10
11 12 14 15 13 14 16 16 16 15 14 14 10 11 8 5 5 8 5 5 4 5 3 9 15 12 12 11 10 10 7 7 6 5 6 5 5 5 5 7 6 6 9 11 4 6 5 6 6 5 3 6 8 10 8 6 6 6 7 6 7 7 6 6 6 6 5 5 4 5 6 6 4 1 9 5 7 8 10 13 10 7 6 7 8 9 9
11 12 14 15 15 15 15 14 14 14 14 14 13 12 12 9 4 3 4 3 2 3 4 3 9 13 13 11 10 7 7 5 5 5 5 5 6 4 8 9 7 10 13 7 7 6 3 2 3 5 6 6 5 5 7 6 6 6 6 5 5 4 3 5 2 0 3 3 4 5 6 4 2 3 4 2 1 6 4 3 5 5 5 7 7 7 8
9 12 15 13 13 14 10 8 13 10 13 13 14 13 12 11 7 3 3 3 4 4 4 4 8 15 9 10 6 7 5 5 6 7 5 5 3 4 5 7 9 14 10 5 5 5 6 5 3 2 2 3 5 5 5 6 7 6 6 5 5 5 5 4 5 4 4 4 5 4 3 1 5 6 7 5 6 2 3 4 4 5 8 8 6 5 5
11 10 12 12 14 12 11 12 10 9 13 12 13 14 11 10 6 7 5 4 4 3 0 6 14 12 7 8 12 9 6 5 5 6 6 7 5 3 5 5 9 17 11 8 5 3 3 5 2 3 3 2 1 5 1 4 5 5 4 5 4 4 5 5 5 4 4 3 1 3 3 3 3 6 7 4 3 2 4 5 6 5 6 7 5 5 5
8 9 8 12 10 9 11 12 13 13 10 9 13 15 12 8 7 5 7 5 6 9 6 5 16 12 13 8 8 7 7 6 8 8 5 5 5 3 3 3 10 17 9 8 6 6 5 6 5 5 4 3 3 5 7 5 4 5 5 3 2 1 2 4 4 5 6 5 4 2 3 5 4 4 6 6 6 6 3 1 5 4 5 4 6 7 7
11 9 10 12 9 13 12 11 11 11 10 7 7 8 5 6 5 5 7 6 7 4 4 5 11 15 12 7 7 10 11 13 11 8 9 8 6 5 5 5 11 17 11 7 6 5 4 4 6 6 5 5 5 4 4 5 6 6 6 4 5 2 2 2 1 4 3 4 4 3 2 2 4 5 6 5 4 4 5 6 5 2 2 2 2 5 6
10 11 11 10 10 12 9 11 15 9 5 7 9 6 10 7 9 8 8 5 4 4 4 6 10 6 3 5 4 8 9 7 6 9 9 6 6 7 6 10 15 15 10 8 7 7 7 5 5 6 6 6 5 5 5 4 4 4 5 7 6 9 10 4 5 4 5 5 5 6 6 6 5 5 6 5 5 4 4 3 4 5 4 2 1 1 3
10 12 13 12 11 8 4 9 11 12 12 15 14 10 10 2 6 5 6 7 6 4 8 10 6 3 4 4 5 8 8 7 10 3 6 12 6 7 8 11 10 14 11 8 8 7 7 7 7 6 6 6 5 4 4 4 4 4 3 2 5 6 8 12 6 5 6 6 4 6 7 6 6 5 6 7 6 5 4 4 4 3 2 2 3 3 4
12 11 11 12 8 9 9 13 14 16 6 10 7 10 6 8 10 11 15 17 8 3 12 8 3 1 5 2 5 7 8 9 7 11 2 1 6 9 6 8 9 14 11 9 8 7 6 7 7 7 6 5 5 4 4 4 4 3 3 3 2 4 8 9 9 7 7 6 5 6 6 5 4 4 4 4 5 5 5 4 4 3 2 2 3 3 2
13 15 12 11 9 7 7 5 8 7 4 3 7 7 4 7 8 10 9 13 9 13 9 3 3 4 2 6 6 5 7 11 9 11 11 9 7 7 8 13 15 14 12 9 8 8 7 7 8 7 7 5 4 3 3 3 3 2 2 4 3 2 5 6 9 3 6 3 3 2 1 2 3 4 4 3 4 4 4 4 4 4 4 4 4 4 4
13 11 10 9 8 4 16 7 6 4 3 8 6 2 7 3 8 10 9 12 10 5 3 3 3 7 6 5 6 10 6 2 6 15 10 10 9 13 16 13 11 9 9 11 10 8 6 6 4 4 4 4 4 3 2 2 0 3 2 2 4 5 7 9 9 9 7 4 2 2 3 3 3 3 3 2 2 3 4 4 5 5 4 4 4 5 5
10 6 6 4 7 4 14 17 4 14 6 5 3 4 7 6 6 6 8 6 7 6 3 3 8 6 7 6 8 11 5 4 7 6 7 12 14 13 13 11 9 9 10 10 9 8 6 5 4 3 3 4 4 2 2 1 2 1 2 2 2 2 3 5 8 7 7 5 4 4 3 4 4 4 4 5 5 4 5 5 5 5 5 5 5 5 4
7 10 9 2 1 2 7 10 6 4 7 3 7 5 3 5 4 5 3 6 5 6 5 3 4 5 4 5 3 11 10 4 9 9 6 11 12 12 10 9 9 11 9 9 7 7 5 4 3 2 2 2 2 2 1 4 3 2 1 2 1 2 3 7 8 6 6 6 6 4 4 4 4 4 4 4 4 4 5 5 5 5 5 4 4 4 5
4 3 4 2 3 4 2 2 2 6 8 8 8 8 5 5 4 6 4 2 2 1 4 4 2 5 3 3 4 7 15 16 10 8 7 12 10 10 8 10 10 10 10 10 8 7 5 5 4 3 2 0 2 1 2 4 3 0 1 0 1 2 4 5 5 6 4 3 2 2 2 1 1 1 2 4 4 4 4 4 4 4 4 5 5 5 6
6 8 3 2 3 3 1 3 10 6 3 9 8 8 6 3 5 4 5 6 4 3 2 2 1 1 2 5 4 4 10 9 8 7 8 10 9 9 9 10 10 10 11 9 9 8 6 6 3 2 3 2 0 2 3 2 1 1 0 0 2 2 4 5 5 5 4 4 4 3 3 2 1 1 1 2 2 2 3 4 4 4 5 4 5 5 5
4 4 6 7 4 4 7 3 5 9 8 5 7 7 5 5 4 5 3 6 7 7 3 4 3 4 5 9 7 9 7 8 8 8 10 8 8 8 10 10 10 10 10 9 9 8 7 4 4 3 2 2 2 2 1 2 2 3 1 1 1 1 3 4 4 3 3 3 4 3 3 3 2 1 2 3 3 3 3 3 3 3 4 4 4 5 5
7 8 8 6 5 5 4 1 2 3 4 7 7 7 8 7 7 6 6 5 7 7 8 7 6 7 7 8 6 7 6 2 11 9 8 7 6 7 9 10 10 10 9 9 9 8 7 5 4 2 3 1 1 1 2 3 3 1 1 0 2 2 3 3 5 4 4 4 5 4 4 3 3 3 3 3 3 3 4 3 3 3 4 4 3 4 4
7 5 8 9 5 6 8 1 6 4 3 4 6 7 8 9 9 8 8 6 7 8 8 7 7 9 10 8 7 8 6 7 7 5 8 6 6 8 10 10 9 8 8 8 9 8 7 5 4 3 2 1 0 1 1 3 3 2 2 2 1 3 2 3 3 3 4 5 4 4 4 4 3 3 3 3 2 2 4 4 3 2 3 2 2 3 4
8 2 2 3 4 3 6 9 5 4 5 5 5 6 8 9 9 8 9 9 9 5 9 11 10 12 8 7 5 11 8 8 9 8 9 7 8 9 10 9 9 9 7 8 8 7 6 5 4 4 3 2 1 1 1 2 1 3 2 2 3 3 3 3 4 4 4 3 2 2 3 4 4 4 4 3 2 1 1 2 6 5 3 1 1 3 4
5 6 5 2 5 3 7 8 7 6 6 5 6 6 7 9 9 10 9 9 10 8 9 9 11 12 11 11 8 7 8 8 7 10 11 10 10 10 11 10 10 9 8 8 7 7 6 5 5 4 3 3 2 3 3 2 2 2 2 3 3 3 4 3 2 3 2 4 4 2 2 2 3 3 4 5 4 6 5 6 5 6 4 4 3 1 1
6 2 3 2 2 1 4 7 7 4 5 5 7 6 7 8 9 9 9 8 11 13 11 10 12 15 14 14 14 10 7 8 8 10 11 11 11 10 10 10 9 9 8 7 8 7 6 6 5 4 3 3 3 2 2 2 2 2 2 2 3 3 2 2 1 1 2 2 2 4 4 3 4 4 3 3 4 1 5 11 6 2 1 3 3 4 4
6 4 3 3 5 4 5 6 7 7 5 2 4 6 7 8 8 8 8 9 9 12 13 1 11 10 11 11 10 8 9 10 12 11 11 10 12 10 11 11 10 9 7 6 6 6 7 6 6 5 4 4 4 4 2 1 2 4 4 2 3 3 2 1 1 2 1 1 2 1 3 4 4 3 4 3 3 4 4 3 5 4 2 6 8 7 6
6 8 6 5 7 7 6 8 10 10 10 1 3 4 7 6 7 6 8 8 8 10 12 5 6 10 7 9 8 9 9 11 12 11 12 11 12 11 11 11 10 8 7 7 6 7 7 7 6 5 5 4 4 2 4 4 2 1 1 1 2 3 3 2 2 0 1 1 2 1 1 2 3 3 4 3 2 3 4 5 5 4 7 10 11 9 10
8 8 6 5 8 10 8 7 8 9 6 5 6 6 7 5 5 6 5 6 7 8 9 12 13 10 8 8 9 11 10 9 4 11 10 11 12 11 10 10 10 9 9 7 7 6 7 6 6 6 5 4 5 4 2 2 2 0 2 2 1 4 3 2 2 1 1 1 2 2 3 3 4 4 3 1 2 2 4 6 6 6 7 7 10 12 11
6 5 5 6 6 7 7 9 8 7 7 6 7 8 7 3 1 5 5 6 7 6 7 11 10 9 9 8 8 6 4 5 11 10 8 10 10 9 9 11 11 10 9 8 6 5 6 6 6 5 4 4 4 4 1 1 1 2 1 1 1 0 0 1 2 2 2 1 1 2 2 2 3 4 3 3 3 2 3 5 4 3 1 2 4 9 15
7 9 8 9 9 9 10 10 10 10 10 11 10 10 10 8 6 2 3 3 4 4 6 7 7 7 6 4 6 5 3 8 13 10 7 5 7 8 8 11 10 10 8 8 7 6 5 5 5 6 5 5 4 3 4 2 2 0 1 1 2 3 3 3 2 2 2 3 2 2 2 2 4 3 3 4 4 4 2 2 3 2 2 1 2 1 2
10 9 10 9 7 9 12 12 11 12 13 11 10 10 10 6 8 3 1 1 2 4 4 2 4 4 2 1 4 6 7 13 14 7 9 8 7 6 8 9 7 8 8 8 8 7 7 6 6 5 5 7 7 7 6 4 3 3 1 0 1 4 5 5 3 1 1 2 2 2 3 4 3 3 4 4 4 4 3 4 5 2 1 2 1 6 4
11 11 13 11 11 10 11 11 10 10 11 11 10 10 11 7 6 5 4 2 2 3 0 2 2 2 3 4 6 3 9 15 8 4 6 4 4 5 8 9 8 8 8 8 9 8 7 7 6 5 5 6 8 6 6 6 5 5 4 3 4 4 4 4 2 2 2 2 3 3 4 4 4 3 2 1 4 5 3 3 1 2 2 1 2 2 4
13 13 13 11 11 12 12 10 11 12 12 12 12 12 11 11 9 9 7 6 5 3 3 2 1 1 3 2 4 7 7 4 4 5 4 5 5 5 6 7 8 8 8 8 8 8 8 7 7 6 6 4 4 5 5 7 6 5 5 5 4 3 3 4 3 4 5 3 3 2 3 3 4 3 1 2 2 2 3 5 2 3 4 5 1 3 2
13 13 13 11 11 12 13 12 12 12 12 13 12 11 10 12 10 9 9 7 7 5 3 3 4 5 4 4 4 4 3 3 3 4 6 6 6 6 7 7 6 6 7 8 8 9 8 8 7 6 6 7 4 6 8 7 6 5 5 4 4 4 4 6 7 5 4 2 2 2 2 1 2 3 3 1 1 2 2 2 4 1 3 2 3 2 1
13 12 12 11 10 9 9 10 10 11 11 12 12 11 11 11 12 8 7 8 10 9 7 6 5 4 5 6 5 5 3 4 3 6 8 8 7 7 7 7 6 6 7 7 8 7 7 7 7 7 8 8 7 7 8 7 5 5 4 4 4 5 5 4 6 4 2 4 4 4 2 1 1 1 1 1 1 2 1 2 2 1 4 3 3 2 1
11 11 12 14 14 14 14 13 13 12 12 12 12 12 11 10 11 9 9 11 11 10 9 8 6 6 6 6 6 6 4 5 7 7 7 6 6 7 7 6 6 6 6 7 6 5 6 7 7 8 7 9 9 8 7 7 6 5 4 3 3 3 2 0 3 4 5 4 2 2 2 2 2 1 3 3 3 3 3 3 3 5 4 4 3 3 1
8 11 11 11 12 13 14 14 14 15 15 14 12 12 13 10 12 12 11 11 10 9 9 9 9 9 8 8 8 7 7 7 7 8 7 7 7 6 7 7 7 8 8 8 7 7 7 7 9 11 7 8 8 8 9 8 7 5 3 2 3 3 2 3 4 3 5 4 4 5 4 4 4 4 4 4 3 4 5 4 2 2 1 3 3 2 2
8 8 8 8 8 10 12 12 12 12 13 13 12 12 12 13 13 10 9 9 9 9 10 10 9 9 10 10 10 9 8 7 7 7 8 8 8 8 9 8 8 9 8 8 8 8 8 7 11 13 7 7 8 8 7 8 6 6 3 3 3 3 5 5 4 5 4 4 5 4 4 2 3 2 2 2 2 3 2 2 3 2 2 2 4 4 2
9 9 8 8 7 7 8 9 11 13 13 14 14 13 13 12 12 12 10 12 11 10 9 10 10 10 9 8 8 8 9 9 8 7 6 7 8 9 9 8 9 8 9 7 8 8 7 9 15 9 6 6 5 8 8 4 6 3 5 4 3 2 2 3 7 6 6 5 4 3 3 3 4 3 3 2 1 1 2 4 5 5 4 3 2 2 2
11 9 9 10 9 9 10 10 10 11 13 14 13 13 11 11 13 13 11 12 13 11 12 11 10 10 10 9 8 8 8 8 8 6 4 4 2 4 7 6 7 8 6 6 9 8 7 11 9 8 6 5 6 8 10 8 5 1 3 3 3 3 3 2 1 2 6 5 4 3 3 3 2 3 4 3 3 3 3 1 0 1 1 2 2 3 3
9 9 11 10 10 9 9 8 9 9 11 12 12 12 11 11 12 13 11 10 7 8 10 10 10 9 8 7 8 8 8 7 4 4 5 1 5 5 4 10 9 5 6 8 8 6 11 16 12 8 6 5 7 5 8 10 8 4 3 3 4 4 4 4 5 4 4 5 6 6 5 5 3 2 4 4 4 4 4 5 6 5 4 2 3 4 3
9 10 10 8 8 8 9 8 9 9 8 9 10 11 11 11 11 12 12 11 7 8 9 8 8 8 8 10 10 8 6 5 5 3 2 3 2 3 0 4 10 11 8 8 5 8 14 12 10 9 7 7 8 6 7 11 8 6 5 4 3 4 4 4 3 3 3 3 3 4 3 3 4 4 3 3 4 3 2 2 2 2 1 0 1 1 2
9 9 8 8 8 8 8 9 8 7 7 7 8 11 12 13 13 12 9 10 9 9 8 8 9 9 9 9 8 7 6 5 5 5 5 5 5 5 3 3 7 8 15 5 8 9 9 10 8 8 8 6 6 8 11 7 6 6 5 4 3 4 4 4 4 3 3 3 3 4 3 4 3 3 4 3 3 2 2 1 0 1 2 1 1 1 1
9 8 7 7 8 8 8 8 8 8 7 5 7 9 10 11 11 9 10 9 10 9 9 9 10 10 10 9 7 6 6 5 7 8 7 7 8 7 5 2 3 9 6 2 2 7 9 8 9 8 10 8 7 9 11 8 6 6 5 3 3 4 5 4 3 3 4 5 4 3 3 3 3 4 4 3 2 3 3 2 2 2 1 1 1 3 2
8 6 6 7 8 9 9 6 6 5 5 5 4 5 9 10 10 9 9 9 8 8 8 8 9 8 6 5 7 6 5 6 6 6 7 6 6 5 6 7 9 14 18 12 8 8 8 8 9 11 13 13 10 13 8 6 6 6 4 2 1 2 5 5 3 3 3 4 4 4 4 4 4 3 3 3 2 2 1 2 1 1 2 3 3 2 3
9 8 9 11 11 12 9 6 5 6 5 4 3 5 7 7 7 8 5 3 4 4 3 4 6 6 5 7 7 7 7 6 6 7 7 7 6 8 8 10 10 11 11 11 5 6 6 8 10 13 9 9 10 13 7 7 6 5 3 3 3 4 5 5 4 3 3 3 3 3 4 4 3 3 3 3 3 1 1 2 3 2 2 2 1 1 3
14 12 11 12 9 7 6 4 1 2 4 4 5 7 9 9 7 6 5 2 1 1 3 4 5 2 6 6 6 5 3 3 3 3 4 8 11 11 9 9 9 8 17 17 8 7 5 6 7 8 11 11 12 10 5 4 4 5 4 4 4 5 6 6 5 4 4 4 4 3 3 3 3 3 2 1 1 3 3 1 2 2 2 2 3 3 2
9 9 10 9 7 5 3 2 2 4 4 3 4 5 7 8 8 6 4 4 4 1 1 2 4 6 6 6 3 3 3 3 1 1 5 7 8 9 14 16 14 15 16 13 9 8 8 6 3 3 8 14 15 7 6 4 4 3 4 4 5 6 7 6 5 4 4 3 3 2 5 4 3 3 4 4 5 3 4 1 2 0 4 3 2 1 1
8 10 8 8 9 8 4 3 3 4 4 3 4 6 6 5 6 6 4 4 2 1 1 4 7 6 6 6 6 5 7 8 4 7 7 8 8 8 8 9 10 13 16 12 11 10 14 12 11 9 9 11 11 8 8 6 6 5 5 5 4 6 6 5 5 5 4 4 3 3 3 4 2 3 4 3 2 2 3 2 3 2 2 3 3 2 2
3 0 5 6 5 6 7 6 5 5 3 2 2 2 3 5 6 5 4 3 4 4 5 7 7 4 3 2 1 3 5 6 7 7 10 9 8 9 9 11 15 18 13 7 7 6 11 14 14 12 13 11 8 7 7 7 6 6 6 6 6 6 5 5 4 4 4 4 4 5 3 3 3 4 4 4 4 3 3 0 2 1 2 3 4 4 4
3 3 3 2 2 3 4 4 4 4 5 6 5 2 3 4 2 1 5 6 6 4 3 4 2 2 2 1 4 5 4 3 9 13 12 10 10 9 9 9 9 12 11 8 8 6 10 15 12 10 7 6 7 7 6 6 5 5 3 2 2 3 3 4 5 4 3 3 4 3 2 2 2 5 4 2 3 2 5 7 5 7 10 5 3 3 3
4 3 2 3 4 3 3 2 3 2 2 4 4 4 6 5 4 4 6 6 4 2 3 1 2 4 4 3 5 4 2 8 12 12 6 8 8 9 10 9 10 9 9 7 6 5 5 5 5 5 4 4 4 3 2 1 0 1 2 2 4 7 9 11 11 7 4 2 3 3 3 3 2 4 2 1 3 4 5 5 2 1 1 3 4 4 4
4 4 3 4 5 4 4 4 2 3 4 3 4 4 6 7 5 4 1 4 3 3 2 5 5 4 3 2 3 4 4 2 5 10 9 7 7 3 6 8 6 3 5 5 4 4 4 4 4 5 4 2 1 1 2 4 4 4 6 7 6 6 6 3 4 11 10 4 2 3 3 2 3 3 3 4 3 3 2 2 3 6 7 6 6 5 4
Wind_Direction
266 273 271 267 268 265 272 275 279 280 281 282 290 285 273 269 286 322 318 261 265 297 104 142 117 159 177 184 193 186 176 183 183 188 195 198 218 191 164 152 152 153 187 156 133 10 346 307 9 280 198 167 134 131 153 162 167 186 174 178 169 151 173 199 196 178 177 199 222 221 195 191 200 198 209 204 204 217 216 209 205 237 210 198 202 207 202
295 290 285 284 277 268 258 258 256 254 264 270 255 246 272 284 280 243 247 336 335 4 135 152 158 154 159 173 171 165 160 193 180 208 201 203 225 191 177 166 152 163 178 142 109 34 242 230 201 186 190 166 93 83 196 172 208 180 152 135 129 154 180 206 199 196 189 208 212 226 205 203 221 217 192 128 193 231 251 264 266 219 200 196 204 209 200
265 263 265 267 271 286 292 285 271 261 256 263 273 279 246 230 273 298 317 336 309 345 142 120 94 116 133 140 155 172 164 177 186 206 217 216 214 216 176 191 146 156 135 91 110 161 185 200 210 185 156 103 131 185 211 183 205 165 161 144 178 175 184 197 181 175 180 199 178 217 225 208 221 219 140 161 190 187 245 227 215 228 190 201 201 211 207
267 268 279 282 283 271 264 261 260 268 276 268 254 264 263 205 242 262 271 267 269 98 56 107 133 135 142 152 168 161 177 192 178 209 213 205 218 182 150 140 138 125 105 105 180 191 181 187 170 156 186 159 172 168 191 194 196 163 168 171 177 186 183 190 184 183 199 181 184 203 233 236 225 350 113 199 188 172 191 232 225 184 197 194 203 205 204
268 275 280 281 275 272 263 264 266 259 256 262 268 263 280 280 245 261 270 316 37 51 77 281 142 143 151 160 174 159 173 193 176 209 238 225 180 165 137 144 145 102 79 116 188 197 180 218 200 177 173 181 163 176 174 186 179 174 174 170 171 167 140 132 100 315 247 182 202 208 221 179 93 36 69 50 128 211 237 214 203 176 184 212 210 212 212
276 279 277 284 280 256 253 270 286 280 263 262 258 253 244 243 222 249 267 293 328 323 285 255 135 156 143 153 157 164 176 188 198 206 194 268 142 144 142 150 132 109 120 201 235 190 167 203 222 182 191 214 166 171 165 177 179 180 183 181 171 160 170 160 152 166 175 202 197 213 170 86 116 114 112 169 227 207 237 238 253 180 196 201 199 208 224
268 269 269 269 263 267 290 283 281 299 313 309 290 290 278 256 220 215 213 220 210 149 123 2 100 129 130 147 154 175 166 185 198 237 193 198 143 138 115 120 111 107 145 191 192 188 163 192 195 197 197 207 172 125 160 190 162 165 185 183 190 174 165 142 153 111 65 65 12 193 142 156 149 141 134 162 221 220 238 235 244 219 204 199 185 197 217
262 257 258 262 260 287 283 276 276 276 276 279 288 269 240 233 250 200 225 212 226 257 232 187 127 141 147 160 151 174 172 194 202 224 174 127 104 108 130 125 110 122 152 184 183 168 153 158 177 195 189 188 180 173 170 177 172 162 170 194 161 194 162 142 136 146 159 177 189 229 195 182 165 137 144 166 181 167 182 67 283 258 220 209 199 201 198
255 255 253 258 276 264 260 266 260 260 258 258 268 288 285 272 243 266 263 268 273 256 245 108 135 147 150 155 170 182 184 196 209 229 178 147 153 174 161 144 107 125 158 181 172 139 168 170 166 161 156 173 178 175 187 178 177 185 168 170 151 189 332 299 172 148 175 189 177 174 130 213 184 151 146 168 194 197 195 177 204 208 267 253 224 206 204
250 257 260 255 245 250 248 256 276 287 267 260 256 253 273 273 274 270 276 249 221 191 250 133 97 82 272 169 167 188 193 208 214 230 142 136 170 170 175 114 102 125 148 167 140 152 174 172 169 162 160 171 182 173 182 172 183 195 178 185 168 156 168 182 266 205 182 207 193 184 193 204 208 171 154 167 187 202 230 218 207 203 188 209 180 115 138
239 241 250 252 261 260 256 266 258 255 254 256 250 246 247 189 265 246 264 255 171 170 97 90 113 160 245 200 207 190 204 199 225 182 109 166 178 170 156 130 133 128 141 151 147 167 168 171 179 173 168 178 179 183 169 181 191 203 197 206 179 155 124 141 191 234 212 207 205 192 196 204 198 186 173 179 176 169 183 208 240 252 203 196 207 199 204
245 262 249 245 238 257 244 231 231 250 269 351 312 243 218 10 336 53 37 8 316 132 118 134 145 227 262 139 186 166 193 207 219 114 281 177 178 117 117 137 129 123 128 134 147 162 172 169 171 173 174 180 189 192 181 178 194 204 220 196 172 120 121 137 148 201 216 198 194 208 203 193 186 176 165 178 171 177 184 191 203 220 228 222 226 239 241
232 230 251 268 264 273 265 255 322 307 172 247 260 255 70 326 343 67 64 49 8 116 131 152 189 182 52 136 170 150 181 207 151 128 164 227 150 150 145 113 121 133 146 154 152 162 172 169 167 167 168 181 171 184 176 185 197 187 165 121 66 91 117 127 122 190 275 267 210 187 215 237 178 175 167 169 152 160 184 196 207 212 219 233 234 242 249
235 232 249 257 265 43 347 332 258 324 119 219 228 76 254 335 33 40 43 75 95 101 81 187 140 87 110 118 124 172 177 228 131 183 161 157 116 107 110 123 137 149 143 135 150 153 162 158 163 156 170 166 156 165 176 207 86 97 93 79 129 151 135 141 148 158 221 243 200 186 218 205 184 165 141 180 215 197 199 187 204 218 222 223 230 231 229
244 242 244 239 252 349 333 340 235 19 307 44 3 17 35 24 37 49 57 48 45 358 131 118 98 148 133 149 148 152 143 212 244 142 141 118 121 127 129 138 142 130 129 140 144 149 155 152 156 154 160 158 151 144 191 135 98 89 75 75 91 105 128 117 123 144 171 185 170 179 185 201 215 203 187 190 201 204 201 202 208 222 221 230 233 234 239
276 244 242 247 42 257 6 354 0 72 72 27 37 353 33 23 10 18 89 56 15 27 24 11 96 116 132 167 231 165 137 202 236 151 152 124 131 135 153 150 149 138 138 138 141 147 148 143 139 145 176 150 141 143 109 74 75 63 47 99 91 124 115 112 127 140 153 171 184 173 171 177 186 216 206 212 205 206 217 217 216 226 232 230 232 234 241
273 302 354 106 180 243 345 309 228 55 54 45 15 39 24 4 22 8 350 45 10 359 13 312 61 152 170 259 240 245 167 188 185 154 142 133 146 151 161 149 138 144 143 144 146 142 146 141 129 139 94 13 88 144 97 80 80 106 152 219 108 125 105 104 119 127 139 125 97 141 148 153 205 222 207 203 224 216 220 219 223 226 229 225 220 232 232
266 272 264 145 210 256 240 40 2 104 73 20 16 17 33 9 16 336 319 324 311 302 137 294 211 267 283 243 240 249 126 153 142 154 146 139 154 155 145 136 143 141 140 146 149 144 144 138 126 131 114 84 96 68 45 108 171 146 25 254 182 135 125 129 134 148 140 128 132 140 160 162 192 182 259 245 254 265 219 224 217 231 243 235 237 233 237
273 239 177 219 218 152 277 330 49 23 24 353 356 4 357 0 330 318 302 286 293 281 263 244 284 255 235 253 224 157 147 190 159 161 147 156 159 163 149 140 138 140 147 152 153 150 145 151 143 140 132 159 106 77 229 253 215 137 122 221 247 199 157 145 139 144 148 156 155 157 179 181 186 251 280 286 288 278 269 261 259 256 254 251 245 253 249
272 293 318 325 358 321 264 350 90 77 41 341 337 344 343 336 345 335 333 306 275 276 260 246 212 228 230 247 140 169 156 186 136 150 152 153 163 149 137 142 144 147 154 160 155 161 153 158 159 154 136 143 61 76 331 291 313 41 138 151 250 201 207 174 165 185 169 173 172 168 172 182 190 219 239 252 240 242 258 260 257 253 270 285 303 299 313
278 256 43 339 307 358 343 22 32 44 353 351 329 346 336 344 348 352 331 322 289 266 263 252 230 213 223 228 163 173 126 117 116 134 141 152 167 143 147 152 154 154 167 161 163 167 161 149 149 152 167 153 46 328 288 311 331 309 317 308 286 270 239 212 179 162 160 169 192 184 164 181 212 211 196 203 233 308 28 22 33 1 340 345 348 345 333
274 280 246 3 347 283 343 322 306 324 340 317 338 340 347 351 346 348 340 328 315 299 271 258 219 208 205 217 174 165 159 153 152 166 143 158 168 160 158 157 160 157 163 160 158 156 142 141 153 158 172 159 173 243 274 257 253 279 268 256 268 260 264 221 212 189 171 204 206 197 172 195 200 193 193 200 124 268 119 91 102 116 115 277 4 336 316
281 342 309 220 199 189 220 241 285 307 305 320 325 339 348 352 347 355 341 334 324 309 260 242 177 184 198 179 157 154 146 154 162 156 148 161 167 168 166 163 156 159 159 162 149 153 147 145 152 160 171 166 194 190 222 238 257 279 283 287 277 261 238 244 46 345 218 187 152 172 229 226 225 226 210 200 108 88 119 154 149 158 162 151 125 90 211
251 228 59 316 312 176 257 287 274 284 279 285 290 323 349 347 358 351 343 338 337 334 312 236 194 189 188 180 173 182 158 154 159 165 160 163 172 167 172 161 160 160 156 160 157 154 139 150 154 154 173 168 208 173 176 216 231 249 260 269 281 289 348 34 64 106 6 335 177 169 190 213 230 222 251 181 180 129 150 158 158 130 296 226 208 201 244
230 163 215 284 313 291 267 274 286 302 311 41 314 321 335 339 6 355 356 356 352 350 341 69 156 154 148 142 159 148 161 172 163 170 159 167 167 171 174 165 164 158 159 163 151 161 152 154 156 168 181 184 185 171 170 227 221 216 218 243 263 282 293 319 30 354 339 30 355 264 210 211 216 245 254 260 233 188 237 226 154 173 246 285 275 259 232
269 249 215 222 251 270 279 284 277 271 267 219 313 347 324 328 28 12 18 2 5 7 352 28 125 137 124 146 151 162 170 166 163 162 175 173 172 179 178 165 163 159 158 158 164 167 165 164 166 166 166 196 171 181 198 162 223 304 299 285 7 25 29 11 319 90 180 151 223 201 255 299 292 260 249 252 196 208 198 205 216 254 244 239 246 256 256
311 321 318 267 254 259 262 266 274 286 304 329 315 317 299 332 25 29 15 10 20 14 4 18 27 24 48 36 43 35 29 339 244 168 180 178 177 184 172 160 164 161 159 165 167 174 163 167 170 171 181 189 167 159 186 175 200 179 337 341 130 120 102 39 330 223 166 181 210 216 224 241 244 258 272 241 254 239 214 224 217 205 215 226 223 216 231
262 258 258 275 282 287 280 272 293 313 305 298 297 294 306 319 313 47 22 11 8 16 26 30 27 37 64 60 64 53 59 288 269 193 180 184 183 185 176 167 165 165 165 162 158 165 161 170 178 181 180 153 94 114 155 197 187 199 100 62 115 224 157 30 356 340 294 63 334 272 278 266 268 266 259 267 248 239 244 252 244 222 248 188 194 209 218
228 243 249 264 274 281 283 280 277 277 275 273 271 274 279 274 270 63 44 44 356 26 35 28 49 52 75 95 93 80 344 259 234 211 196 204 182 185 167 154 162 164 150 160 160 167 176 179 186 180 166 137 139 185 194 186 241 196 185 194 240 236 228 192 201 276 332 344 328 10 10 302 298 288 277 259 250 222 185 287 280 277 209 92 102 89 147
247 263 268 257 249 257 263 265 270 268 268 270 272 273 263 252 257 216 166 103 55 45 30 10 80 79 59 76 114 135 188 244 239 198 204 192 185 180 158 145 163 151 154 171 164 169 174 181 190 190 169 145 167 172 203 165 177 128 133 145 333 35 38 35 42 73 225 247 281 314 286 267 246 261 277 270 247 244 224 223 224 168 82 290 246 155 200
251 239 242 253 258 264 267 277 278 275 269 268 268 265 267 235 239 226 167 126 74 96 97 11 7 65 86 89 93 138 226 233 244 215 223 178 174 164 149 163 170 167 172 176 163 170 175 183 184 202 155 200 175 169 185 136 122 133 149 138 91 92 75 50 24 303 272 252 228 226 254 263 262 247 228 305 331 290 309 281 293 356 27 13 217 92 63
272 266 257 250 251 254 255 251 253 258 266 271 266 256 257 252 218 223 199 177 163 157 154 140 75 294 257 190 162 191 225 199 181 260 248 189 183 155 156 178 182 175 175 173 166 174 173 184 181 204 164 186 125 172 129 132 150 172 137 120 131 146 160 209 220 232 249 180 188 235 255 268 281 296 255 164 191 339 28 298 31 302 153 241 126 88 78
263 260 256 257 257 258 260 261 264 266 264 259 255 258 264 272 257 225 226 197 177 170 176 208 214 215 221 252 234 199 231 188 193 222 226 212 183 177 172 192 188 175 177 173 177 178 182 179 184 166 138 152 163 175 155 158 181 143 140 164 155 145 167 196 229 233 236 284 233 173 231 326 352 340 321 11 103 91 30 330 293 270 321 271 108 102 56
262 258 261 262 267 270 272 273 276 274 268 263 265 263 254 249 258 233 210 205 187 177 176 184 209 202 212 226 221 216 182 121 172 222 217 216 196 188 184 198 191 182 181 173 185 178 180 170 188 150 155 157 183 184 163 170 157 156 173 168 166 164 197 215 196 231 280 346 37 92 50 35 4 358 305 159 122 99 324 195 203 279 210 168 130 143 134
265 266 263 263 261 260 261 262 264 268 278 285 282 266 248 247 257 232 195 206 205 184 174 184 185 200 210 230 237 237 208 196 200 211 217 205 200 190 185 198 190 187 184 178 179 177 176 177 186 152 158 169 184 178 167 168 157 172 201 221 118 105 108 20 70 42 18 4 1 68 82 87 97 95 73 84 95 110 103 99 142 229 188 141 145 145 137
283 278 275 274 275 278 276 274 271 271 270 272 275 290 294 269 251 245 205 201 203 194 194 201 184 186 194 202 219 229 228 221 217 214 215 205 201 196 193 196 183 185 184 186 183 186 169 190 159 153 165 175 179 172 172 181 163 158 145 161 156 143 134 91 93 67 53 51 74 76 84 90 85 81 109 134 140 134 127 108 131 284 231 152 130 156 182
263 261 263 266 274 282 285 281 277 279 277 273 276 278 284 293 286 264 222 194 202 207 205 209 198 190 195 197 202 207 219 221 222 216 215 210 201 202 198 195 184 189 183 190 186 185 182 179 143 161 180 174 181 169 187 192 142 140 159 202 173 166 168 154 126 116 110 89 108 116 121 126 99 91 73 100 132 126 143 172 171 200 237 151 171 174 147
265 261 261 259 261 266 272 278 281 278 272 269 263 260 263 271 280 274 233 210 206 204 203 196 199 203 206 202 194 197 206 217 224 222 218 206 201 209 208 199 191 185 195 191 183 182 187 154 151 170 195 170 208 170 177 97 35 151 171 200 219 189 241 156 143 149 153 159 156 159 173 134 130 143 143 154 137 201 223 206 185 190 184 180 150 169 157
254 253 258 257 256 256 256 260 266 267 267 264 262 262 261 260 265 266 250 227 220 196 183 196 197 208 213 205 192 197 211 217 221 215 199 160 107 329 288 244 194 193 188 173 182 181 146 144 163 177 200 170 201 197 162 155 159 228 197 186 198 242 218 212 107 152 150 150 164 166 147 174 155 139 150 152 172 192 213 226 335 187 194 191 189 199 206
265 257 253 254 257 253 259 265 270 272 270 264 260 256 249 249 255 257 251 243 205 176 196 193 196 204 199 205 206 207 206 202 175 173 204 139 80 143 234 294 280 214 192 178 181 169 148 157 165 184 200 184 200 203 148 162 166 204 208 206 204 212 228 209 169 202 145 177 177 187 189 191 176 195 151 170 169 183 185 197 204 220 227 201 196 187 175
246 247 255 261 262 264 267 273 272 270 268 272 271 262 250 245 252 251 239 233 225 206 210 194 193 210 199 196 208 215 206 190 180 179 98 72 58 100 111 255 271 258 210 188 184 144 152 163 174 178 205 184 202 169 150 163 168 194 211 222 207 224 220 210 204 205 171 206 154 206 196 163 163 186 169 191 170 183 186 229 209 232 294 267 282 100 107
253 251 260 263 260 263 271 278 280 277 276 278 277 270 259 248 244 242 234 226 227 220 218 217 214 210 205 210 203 196 195 181 141 126 120 139 133 104 94 313 321 347 2 5 118 139 157 168 180 185 193 184 189 153 147 163 175 194 209 213 211 229 237 217 199 183 181 209 194 207 190 176 167 189 190 191 172 195 209 224 227 188 237 196 235 283 259
262 254 249 258 267 268 266 265 265 276 288 300 322 315 283 255 252 247 235 229 231 233 222 215 215 220 219 209 184 188 192 172 142 134 133 125 133 132 114 137 133 119 109 284 192 162 170 180 185 199 190 194 182 166 160 171 191 199 207 203 231 258 259 239 224 190 176 182 202 209 188 201 189 191 178 204 202 192 203 205 235 220 248 232 195 229 102
271 262 267 277 277 273 260 243 255 269 281 297 304 312 317 298 255 243 240 242 243 249 243 223 224 221 208 175 175 189 188 168 153 154 145 128 107 126 142 177 203 170 172 178 185 188 180 183 188 197 183 191 182 159 177 193 196 199 194 183 251 263 271 258 218 200 208 192 190 187 186 196 203 199 189 205 217 221 192 228 206 262 223 224 228 208 146
279 282 262 235 230 242 233 229 245 257 259 269 293 298 289 289 293 282 282 309 316 284 192 199 212 222 189 183 187 186 186 176 171 165 154 149 165 201 192 211 204 172 187 182 176 191 188 180 190 198 190 190 173 166 179 195 204 199 173 181 211 242 256 275 270 216 210 227 207 190 175 183 196 201 190 210 201 240 209 225 236 223 228 246 251 9 59
262 250 256 263 228 214 247 258 199 270 278 298 319 321 319 309 294 307 319 287 205 210 300 310 295 250 144 170 200 200 143 108 124 128 142 171 195 201 178 185 203 192 187 186 173 187 189 147 133 181 184 164 162 179 189 200 201 202 196 198 212 230 243 236 240 243 214 222 228 200 171 175 188 187 193 180 169 202 214 260 147 205 175 64 58 51 97
261 251 244 230 241 253 261 280 192 209 222 275 291 278 277 298 313 313 317 326 313 355 79 346 261 210 214 225 209 174 155 111 44 209 198 204 202 162 183 200 193 201 193 186 182 183 179 170 161 148 182 173 164 177 185 191 194 214 201 211 216 228 230 227 223 229 230 219 246 213 157 187 190 161 146 163 214 219 112 115 260 77 77 52 40 87 276
345 330 328 328 323 326 309 265 279 274 253 220 228 248 238 256 266 273 302 341 12 126 227 243 226 201 183 177 169 139 125 132 198 260 249 226 207 193 170 180 188 197 200 200 192 181 171 166 172 167 174 189 184 185 185 193 195 205 208 207 227 239 247 240 210 211 219 221 234 273 203 189 134 131 139 171 174 169 160 192 232 113 100 179 195 123 101
336 53 341 322 325 330 311 313 319 317 328 325 228 268 264 215 232 270 300 302 278 255 226 224 222 220 178 187 177 117 117 145 171 229 233 219 198 182 182 186 182 188 190 195 191 182 173 174 181 183 178 181 192 193 192 194 201 204 217 216 213 226 249 256 241 213 211 205 202 233 238 191 175 144 156 189 195 142 128 262 46 119 175 97 71 65 57
321 345 3 7 306 300 323 328 324 333 333 323 312 257 239 240 243 310 310 297 293 288 256 237 232 317 20 76 82 44 6 325 265 242 214 199 193 194 176 174 174 181 187 190 188 180 176 180 183 181 170 179 191 196 200 199 203 206 213 211 249 233 247 283 293 333 293 209 201 216 188 241 203 151 179 155 142 150 113 87 82 67 64 71 80 60 63
332 326 312 277 285 286 284 273 298 301 287 318 322 297 290 291 276 201 163 170 205 153 95 28 278 247 230 161 106 101 273 235 232 242 208 195 191 186 177 167 163 168 182 196 183 181 165 172 175 165 177 190 183 179 175 158 339 5 53 67 56 42 23 359 329 299 274 242 210 195 191 218 140 107 108 43 85 72 86 97 113 153 208 69 89 94 83
317 308 300 290 303 310 309 306 348 357 344 342 334 348 315 311 300 310 88 132 158 157 159 149 174 247 339 21 97 146 177 239 357 323 318 336 339 289 73 50 61 112 167 178 159 135 134 155 141 141 142 155 152 125 89 52 50 61 73 79 90 96 102 115 308 298 287 282 228 167 132 108 83 81 91 96 99 98 101 120 84 68 73 85 89 97 111